map of YMS home
Great Circle Mapper logo
YMS - Airport
Location
City:  Yurimaguas, Perú
Name:Moisés Benzaquén Rengifo Airport
ICAO / IATA:SPMS / YMS

Details
Type:Airport (Aerodrome, Airfield)
Latitude:5°53'38"S (-5.893771)
Longitude:76°07'06"W (-76.118210)
Datum:WGS 1984
Elevation:587 ft (179 m)
Variation:3.58°W (WMM2015 magnetic declination)
-0.16° annual change
Runways:1
Longest:5912 × 98 ft (1802 × 30 m), paved

Time
Time Zone:UTC-5
Local Time:

Weather
METAR:SPMS 272300Z 06003KT 030V100 9999 BKN015 SCT100 25/23 Q1012 RMK BIRD HAZARD 09/27 PP020
TAF:SPMS 271700Z 2718/2818 VRB02KT 9999 BKN020 SCT100 TX32/2720Z TN22/2810Z
TEMPO 2721/2800 03010KT 5000 SHRA BKN010 BKN070
TEMPO 2809/2813 VRB08KT 7000 -DZRA BKN005 BKN100

Related Locations
Nearby:
Farthest:RDN: 12388 mi / 19937 km
Redang, Pulau Redang, MY

Find:

   beyond  
but within

Other Information
Maps:
NOTAMs:
Links:
Sources:

  
flag of Perú   

Sectional Chart

Flight Planning
at skyvector.com

Satellite Image

Google Maps Satellite View

 

Copyright © 2004-2015 Karl L. Swartz. All rights reserved.
The Great Circle Mapper name and logo are trademarks of the Great Circle Mapper.
All other trademarks mentioned herein belong to their respective owners.
Please see credits for attibutions and further copyright information.

  Follow gcmap on Facebook Follow gcmap on Twitter

hCard Microformat

Geo Microformat